Regional Weather Roundup
Issued by NWS

Home | Current Version | Previous Version | Text Only | Print | Product List | Glossary On
Versions: 1 2 3 4 5 6 7 8 9 10 11 12 13 14 15 16 17 18 19 20 21 22 23 24 25 26 27 28 29 30 31 32 33 34 35 36 37 38 39 40 41 42 43 44 45 46 47 48 49 50
567
ASUS43 KDMX 270201
RWRIA

WEATHER ROUNDUP FOR IOWA
NATIONAL WEATHER SERVICE DES MOINES IA
900 PM CDT SUN MAR 26 2017

NOTE: "FAIR" INDICATES FEW OR NO CLOUDS BELOW 12,000 FEET WITH NO
SIGNIFICANT WEATHER AND/OR OBSTRUCTIONS TO VISIBILITY.

* - THESE STATIONS ARE NOT NWS STATIONS...THUS NOT UNDER NWS
QUALITY CONTROL.  THEY ALSO DO NOT REPORT WEATHER SUCH
AS PRECIPITATION OR FOG.

IAZ001>003-012>014-020>022-031>034-043>046-270300-
   NORTHWEST IOWA

CITY           SKY/WX    TMP DP  RH WIND       PRES   REMARKS
CARROLL *      CLOUDY    45  45 100 CALM      29.95R
CHEROKEE *     CLOUDY    44  41  90 CALM      29.96R
LE MARS *      CLOUDY    46  41  81 CALM      29.98R
ORANGE CITY *  CLOUDY    43  39  87 CALM      29.96R
SHELDON *      CLOUDY    43  43 100 CALM      29.94R
SIOUX CITY     CLOUDY    47  40  76 CALM      29.96R
SPENCER        CLOUDY    43  39  86 NW5       29.95R
STORM LAKE *   CLOUDY    43  39  87 NE6       29.95R
$$

IAZ055>058-069>071-079>083-090>094-270300-
   SOUTHWEST IOWA

CITY           SKY/WX    TMP DP  RH WIND       PRES   REMARKS
ATLANTIC *     CLOUDY    46  43  87 W5        29.97R
AUDUBON *      CLOUDY    45  41  87 CALM      29.97R
CLARINDA *     CLOUDY    48  45  87 NW5       29.99R
COUNCIL BLFS * CLOUDY    48  45  87 CALM      29.96S
CRESTON *      CLOUDY    45  45 100 CALM      29.97R
HARLAN  *      CLOUDY    46  46 100 CALM      30.00R
LAMONI         CLOUDY    47  43  86 NW3       29.94R
RED OAK *      CLOUDY    48  45  87 CALM      29.97R
SHENANDOAH *   CLOUDY    48  45  87 CALM      29.98R
$$

IAZ047>049-059>061-072>074-084-270300-
   CENTRAL IOWA

CITY           SKY/WX    TMP DP  RH WIND       PRES   REMARKS
AMES           CLOUDY    45  44  97 NW3       29.94R
ANKENY *       CLOUDY    45  43  93 NW5       29.96R FOG
BOONE *        CLOUDY    43  43 100 CALM      29.94R
CHARITON *     CLOUDY    46  45  93 CALM      29.94R
DES MOINES     DRIZZLE   46  44  93 NW3       29.95R FOG
GRINNELL*      CLOUDY    45  44  95 W5        29.94R
KNOXVILLE *    CLOUDY    46  45  93 CALM      29.94R
MARSHALLTOWN   CLOUDY    46  44  93 N7        29.91S
NEWTON *       CLOUDY    45  43  93 SW7       29.94R
PELLA *        CLOUDY    46  44  95 W3        29.96R
PERRY *        CLOUDY    45  43  93 CALM      29.95R
$$

IAZ004>006-015-016-023>025-035-036-270300-
   NORTH CENTRAL IOWA

CITY           SKY/WX    TMP DP  RH WIND       PRES   REMARKS
ALGONA *       CLOUDY    41  41 100 N6        29.94R
CLARION *      CLOUDY    43  43 100 N5        29.92R
ESTHERVILLE    CLOUDY    40  39  97 N5        29.93R
FORT DODGE *   CLOUDY    43  37  81 W3        29.96R
MASON CITY     CLOUDY    42  40  92 N3        29.94R
FOREST CITY *  CLOUDY    41  41 100 N6        29.93R
WEBSTER CITY * CLOUDY    43  43 100 CALM      29.92R
IOWA FALLS *   CLOUDY    45  43  93 N7        29.93R
$$

IAZ007>011-017>019-026>030-037>042-050>054-066-270300-
   NORTHEAST IOWA

CITY           SKY/WX    TMP DP  RH WIND       PRES   REMARKS
CEDAR RAPIDS   CLOUDY    46  46 100 NW3       29.90R
CHARLES CITY * CLOUDY    43  43 100 N6        29.92R
CLINTON *      CLOUDY    49  47  93 W13       29.91R
DECORAH *      CLOUDY    41  41 100 N7        29.89S FOG
DUBUQUE        CLOUDY    44  44 100 NW6       29.90R FOG
MONTICELLO *   CLOUDY    46  45  93 W7        29.91R
OELWEIN *      CLOUDY    45  45 100 N5        29.91R
WATERLOO       CLOUDY    44  41  89 NW5       29.92R
$$

IAZ064-065-067-068-078-270300-
   EAST CENTRAL IOWA

CITY           SKY/WX    TMP DP  RH WIND       PRES   REMARKS
DAVENPORT      CLOUDY    49  46  90 W9        29.92R
IOWA CITY      CLOUDY    49  45  86 W5        29.93R
MUSCATINE *    CLOUDY    48  46  93 W6        29.94R
QUAD CITIES    CLOUDY    50  46  86 W8        29.92R
$$

IAZ062-063-075>077-085>089-095>099-270300-
   SOUTHEAST IOWA

CITY           SKY/WX    TMP DP  RH WIND       PRES   REMARKS
BURLINGTON     CLOUDY    48  47  96 W5        29.94R
FAIRFIELD *    CLOUDY    46  46 100 W3        29.94R FOG
FORT MADISON * CLOUDY    48  46  93 CALM      29.95S FOG
KEOKUK *       CLOUDY    50  46  87 SW7       29.94S
OSKALOOSA *    CLOUDY    45  44  97 CALM      29.95R FOG
OTTUMWA        CLOUDY    47  47 100 NW3       29.94R FOG
WASHINGTON *   CLOUDY    46  46 100 W6        29.95R
$$

ABBREVIATIONS USED IN REMARKS
   TC - TEMPERATURES IN CELSIUS
  WCI - WIND CHILL INDEX
   HX - HEAT INDEX
  VSB - VISIBILITY
$$





USA.gov is the U.S. government's official web portal to all federal, state and local government web resources and services.